Wind_Speed
29 30 30 30 30 31 32 31 31 31 33 33 33 33 33 33 33 34 35 35 35 36 36 37 37 38 38 39 38 38 38 38 38 39 39 40 40 41 41 41 42 42 42 42 43 43 43 44 44 44 44 44 44 44 44 44 44 44 44 43 43 43 43 43 43 43 43 42 42 42 42 42 42 42 42 42 42 41 41 41 41 41 41 40 40 40
29 30 30 29 29 30 32 32 30 30 31 33 33 33 34 34 35 35 35 35 35 35 35 36 37 38 38 39 39 38 38 38 38 39 39 40 40 41 41 41 41 42 42 42 43 43 44 44 44 45 45 45 45 45 45 44 44 44 44 44 44 44 44 44 44 44 43 43 43 43 43 43 43 42 42 42 42 42 42 42 42 41 41 41 41 41
31 30 30 29 29 29 31 32 31 30 31 32 33 34 34 35 35 35 35 35 34 34 34 35 36 38 39 39 39 39 39 38 38 39 39 40 40 41 41 41 41 42 42 43 43 44 44 45 45 45 45 46 45 45 45 45 45 45 45 45 45 44 45 45 44 44 44 44 44 44 44 44 43 43 43 43 43 42 42 43 43 42 42 42 42 41
30 30 30 30 29 29 30 31 31 31 31 32 33 34 34 34 35 35 35 35 35 35 35 36 37 38 38 39 38 38 38 38 38 38 39 40 40 41 41 42 42 42 43 44 44 44 45 45 46 46 46 46 46 46 46 46 46 45 45 45 45 45 45 45 45 45 45 45 45 45 45 44 44 44 44 43 43 43 43 43 43 43 43 43 43 42
30 29 30 30 30 30 31 31 31 31 31 32 33 33 34 34 34 35 35 35 35 35 35 35 36 36 36 37 37 38 38 39 39 40 40 41 41 42 42 43 43 44 44 44 45 45 45 46 46 46 46 46 46 46 46 46 46 46 45 45 45 45 45 44 44 45 45 45 45 45 45 45 45 44 44 44 43 43 43 43 43 43 43 43 43 43
31 30 29 29 30 31 31 31 31 30 31 32 32 33 33 33 34 34 35 35 35 35 35 35 35 36 37 38 39 40 40 40 41 41 41 42 43 43 43 44 44 44 45 45 45 46 46 46 46 46 46 46 46 46 46 46 46 46 46 45 45 45 44 44 44 44 44 44 44 44 45 45 44 44 44 44 44 44 44 44 44 44 44 44 44 43
32 31 30 30 30 30 31 31 31 30 30 31 32 33 33 33 33 34 34 34 34 35 35 36 36 36 37 38 39 39 40 40 40 41 41 42 42 43 43 43 44 44 45 45 46 46 46 46 46 46 46 46 46 46 46 46 46 46 46 46 45 45 45 45 44 44 44 44 44 44 44 44 44 44 44 44 44 44 44 44 44 44 44 44 44 44
32 32 31 30 30 30 31 31 30 29 29 30 31 32 33 34 33 34 34 34 33 33 34 34 35 34 34 35 36 37 37 37 38 39 39 40 40 41 42 42 43 44 44 45 45 46 46 46 45 45 46 46 46 46 46 46 46 46 46 46 46 46 46 45 45 45 45 44 44 44 44 44 44 44 44 44 44 44 44 44 44 44 44 44 44 44
30 31 31 30 29 29 31 32 30 29 28 29 30 31 32 34 34 34 34 33 32 31 31 31 32 33 34 33 33 34 35 36 36 36 37 38 39 39 40 41 41 42 43 43 44 44 45 45 45 45 45 45 45 45 45 45 46 46 46 46 46 47 46 46 46 46 46 45 45 45 45 45 45 45 45 45 45 44 44 44 44 44 44 44 44 44
29 29 30 30 29 28 29 31 31 30 29 29 29 30 30 31 33 33 33 33 32 31 30 30 31 33 34 33 33 33 34 35 36 36 37 38 39 39 40 40 40 40 41 42 43 43 44 44 44 45 45 45 45 45 45 46 46 46 47 47 47 47 47 47 47 47 47 47 47 46 46 46 45 45 45 45 45 45 45 45 45 45 45 44 44 44
27 28 28 29 29 28 28 29 30 30 30 30 30 30 29 28 28 29 30 32 34 34 32 31 31 32 33 33 33 33 33 34 35 36 36 37 38 38 39 40 40 40 41 42 42 43 43 44 44 45 45 45 46 46 46 46 47 47 47 48 48 48 48 48 48 48 48 48 47 47 47 46 46 46 46 46 46 46 46 46 46 45 45 45 45 45
26 26 27 27 28 28 29 29 30 30 29 28 28 28 28 27 26 26 28 31 33 35 34 34 32 31 31 32 32 33 33 33 33 33 33 33 33 33 34 34 35 36 37 37 38 39 40 41 42 42 43 44 45 45 45 46 46 47 47 47 48 48 48 49 49 49 49 49 48 48 48 47 47 47 47 47 47 47 47 47 46 46 46 46 46 46
26 26 26 27 27 28 28 28 28 28 27 26 25 25 27 28 28 28 28 29 32 34 34 35 35 34 33 32 31 32 33 33 34 33 32 32 31 31 31 31 32 32 32 32 32 33 34 35 36 38 39 40 42 43 43 44 45 46 46 47 47 47 48 48 48 49 49 49 49 49 49 48 48 48 48 48 48 48 47 47 47 47 47 47 46 46
25 25 25 25 26 26 27 27 26 26 26 26 26 27 29 30 30 30 29 30 32 34 34 35 36 36 36 34 32 31 32 32 33 33 32 32 32 31 31 32 33 32 31 31 31 31 31 31 32 34 36 37 38 39 40 41 42 43 43 44 45 46 46 47 48 48 48 49 49 49 49 49 49 49 49 49 49 48 48 48 48 48 47 47 47 47
24 23 23 23 24 25 26 26 26 26 27 28 29 30 31 31 30 30 29 30 32 34 34 34 35 36 35 33 30 28 28 29 29 30 32 33 33 32 31 31 32 32 31 30 31 31 32 33 33 34 35 36 37 38 38 39 40 41 41 42 43 44 45 46 47 47 47 48 48 48 48 48 48 48 49 49 49 49 48 48 48 48 48 48 47 47
24 23 22 22 24 25 26 26 26 27 28 29 29 29 29 29 30 29 28 29 31 32 31 30 30 31 33 33 30 26 25 26 27 29 32 35 35 34 31 31 31 32 33 34 34 35 35 35 35 36 37 37 37 38 38 39 39 40 41 42 43 44 45 46 46 47 47 47 48 48 48 48 48 48 48 49 49 49 48 48 48 48 48 48 47 47
24 23 23 23 24 26 28 27 27 28 29 29 30 29 28 28 29 29 29 30 30 30 27 26 18 14 21 31 33 28 26 27 29 31 33 36 38 36 33 32 32 33 37 37 37 37 37 37 38 38 38 38 39 39 40 40 41 42 43 44 45 45 46 47 47 47 48 48 48 48 48 48 48 48 48 49 49 49 49 48 48 48 48 48 47 47
24 24 24 24 25 26 28 28 28 28 28 29 30 30 30 30 29 29 29 29 29 28 27 27 21 13 11 20 29 33 30 30 31 33 35 37 38 38 35 32 33 35 37 37 37 36 36 36 36 37 37 38 39 40 41 42 43 44 44 45 45 46 46 47 47 48 48 48 49 49 49 49 49 49 49 49 49 49 49 49 49 49 48 48 48 47
26 25 25 25 26 27 28 28 28 28 28 29 30 31 32 33 33 31 30 29 28 27 26 25 25 24 23 26 32 36 34 32 31 31 33 36 38 38 36 33 33 35 36 35 34 34 33 33 33 34 35 36 38 38 40 41 42 43 43 44 44 45 45 46 47 47 48 48 48 49 49 49 49 50 50 49 49 49 49 49 49 49 49 49 48 48
28 29 28 28 28 28 29 30 30 29 30 31 31 31 32 34 34 33 32 31 30 29 29 27 27 28 30 32 35 37 35 33 30 30 33 36 38 38 35 32 31 32 34 35 34 32 32 32 34 35 36 36 36 36 37 38 39 40 41 42 42 43 44 45 45 46 47 47 48 48 49 49 49 50 50 50 50 50 50 50 50 50 49 49 49 48
30 31 31 31 29 29 29 31 32 33 33 33 32 30 29 31 31 30 30 30 29 29 30 28 28 30 31 33 36 38 36 33 30 30 32 34 35 35 33 31 31 32 32 33 33 32 32 32 33 34 34 35 35 36 36 37 37 38 39 40 41 42 43 44 45 45 46 46 47 47 48 49 49 50 50 50 51 51 51 51 51 50 50 50 50 49
32 33 34 33 32 31 32 34 36 36 35 34 31 29 29 29 29 29 29 30 29 29 30 30 31 33 34 36 38 39 37 33 30 29 29 26 29 33 32 30 29 29 31 32 33 33 32 33 34 34 35 36 36 37 37 38 38 39 39 40 41 42 43 44 44 44 45 45 46 47 47 48 48 49 49 50 50 51 51 51 51 51 51 51 50 50
35 36 37 36 35 34 35 36 37 36 35 32 31 30 30 28 28 28 30 31 31 30 29 31 34 37 37 37 37 37 35 33 31 29 27 18 22 30 31 29 29 31 32 34 34 34 34 34 34 35 35 36 37 37 38 38 39 39 40 40 41 42 42 43 44 44 44 45 45 46 46 47 48 48 49 49 50 50 51 51 51 51 51 51 51 51
38 38 39 37 36 35 34 34 34 34 33 32 31 31 32 33 33 33 34 33 32 32 32 33 34 36 36 34 32 31 31 29 28 27 25 22 24 29 30 29 30 31 33 34 34 33 33 34 35 35 35 36 36 37 37 38 38 39 39 40 40 41 42 43 43 44 44 44 45 45 46 46 47 47 48 49 49 50 50 50 51 51 51 51 51 51
37 36 35 34 33 32 33 34 35 36 37 37 37 37 37 37 36 35 34 33 33 33 35 33 31 30 31 30 29 29 28 27 25 24 24 23 26 29 30 29 28 30 32 34 34 33 33 34 35 35 35 35 35 36 36 37 37 38 38 39 39 40 41 42 43 43 43 44 44 44 45 46 46 47 47 48 48 48 49 49 49 50 50 50 50 51
32 32 32 33 35 38 41 43 43 43 41 40 39 38 36 35 34 34 33 32 31 30 29 25 23 23 27 26 26 26 27 26 24 23 23 23 24 27 30 29 28 29 31 33 33 32 31 33 34 35 34 34 34 35 35 36 37 37 38 38 39 40 41 42 42 43 43 43 43 44 45 45 46 46 47 47 47 47 47 48 48 48 48 49 49 50
32 34 37 39 41 42 42 42 41 40 39 37 36 35 34 33 31 30 31 30 28 25 22 17 15 17 23 22 22 24 26 26 25 25 25 25 24 25 27 28 28 28 30 31 32 31 31 32 33 34 34 34 34 35 35 36 36 37 37 38 38 39 40 40 41 42 43 43 44 44 44 45 45 46 46 46 46 46 47 47 47 47 47 47 47 47
33 35 38 38 39 39 38 37 37 36 35 35 35 34 32 30 28 26 27 26 25 22 21 16 13 12 13 17 22 27 28 27 27 26 26 25 22 22 25 27 27 27 29 30 32 33 32 32 33 34 34 34 34 34 35 35 35 35 36 36 37 37 38 39 40 41 43 44 44 44 44 45 45 45 46 46 46 46 46 46 46 46 46 46 45 44
34 35 36 35 35 35 34 34 34 34 34 34 34 33 30 27 25 24 26 25 24 22 22 22 20 17 16 20 25 28 27 26 25 25 24 22 20 21 25 27 27 28 29 29 31 33 32 31 30 30 30 32 32 32 32 32 32 32 33 34 34 35 36 38 39 41 43 44 45 45 45 45 45 45 46 46 46 46 46 46 46 46 45 44 43 42
33 32 32 32 32 32 31 32 33 34 33 33 31 29 27 24 24 24 25 24 23 22 22 23 23 22 21 21 19 18 20 24 23 22 22 20 19 22 26 27 28 29 28 24 20 20 24 27 28 27 27 29 30 30 30 30 31 31 32 33 34 35 36 38 40 42 43 44 45 45 45 45 45 46 46 46 46 46 46 46 46 45 43 41 40 40
30 29 29 30 31 31 30 31 31 31 31 29 28 26 25 24 24 25 25 24 24 23 23 23 24 24 22 14 8 7 9 22 26 24 24 22 21 24 26 26 27 28 27 21 10 6 12 16 24 29 27 28 28 29 29 30 31 32 33 34 35 35 36 37 39 40 42 43 44 45 45 45 45 45 45 45 45 46 46 46 45 44 42 40 39 38
29 28 29 30 30 30 29 28 28 28 27 26 25 25 24 24 24 25 25 24 24 24 25 25 25 24 23 17 13 10 11 23 28 27 26 23 23 24 25 24 24 26 26 24 18 12 9 6 17 28 28 28 27 28 28 28 29 31 33 34 34 34 35 35 35 36 38 39 40 41 41 42 42 43 43 44 44 44 45 45 45 44 42 40 39 37
28 28 28 29 28 27 26 26 25 25 24 24 24 24 24 24 24 24 24 24 24 24 24 24 24 24 24 25 23 22 24 28 29 28 27 25 24 24 26 25 25 26 28 27 26 22 14 10 16 24 26 26 26 26 27 27 28 29 30 30 31 31 32 31 30 31 32 33 34 35 36 37 38 39 40 40 41 42 43 43 44 43 42 40 39 38
27 28 27 26 26 25 24 24 24 24 23 23 23 23 23 23 23 23 23 23 24 24 24 24 24 24 24 24 24 26 29 29 29 28 27 27 25 25 27 26 26 27 27 26 25 23 20 19 20 21 22 26 27 27 27 26 26 26 26 26 26 26 27 28 28 28 29 29 30 31 32 33 34 35 35 37 38 39 40 41 42 42 41 40 38 37
26 26 25 24 23 23 23 23 23 23 23 23 23 23 22 22 22 22 23 23 24 24 25 26 26 26 25 24 23 25 28 30 30 30 29 28 27 26 27 26 26 26 25 23 21 18 16 19 22 22 21 23 26 26 25 23 23 23 24 24 25 27 28 28 29 29 28 28 28 29 29 30 31 31 31 32 33 35 36 36 38 39 40 40 40 38
23 23 23 22 21 21 21 22 22 22 22 22 21 21 21 21 22 23 24 25 26 26 27 28 28 28 28 28 27 27 30 32 33 32 31 30 29 27 26 26 27 27 24 21 19 17 15 18 23 25 21 17 16 20 24 23 22 22 23 25 26 27 28 29 29 28 27 26 26 27 27 28 28 28 29 30 31 32 32 34 35 37 38 39 40 40
21 21 21 20 20 20 20 21 21 20 20 21 21 21 22 22 24 25 27 28 28 29 29 30 30 30 30 30 31 31 32 34 34 33 33 33 32 30 27 27 27 26 23 20 21 21 20 16 16 17 17 12 11 15 21 23 23 22 23 24 25 26 27 27 27 26 26 26 26 27 27 28 28 28 29 30 31 31 32 33 34 34 35 37 38 40
20 20 21 20 19 19 19 20 20 20 20 21 22 22 23 25 27 28 29 30 30 31 30 30 30 30 31 31 32 33 33 34 34 34 34 34 33 32 29 27 27 26 23 23 23 24 22 14 11 10 10 13 17 20 22 23 23 23 24 24 24 25 26 26 26 26 26 27 27 28 28 28 29 29 29 29 29 29 29 31 31 31 32 33 35 36
20 21 21 20 20 19 19 20 20 21 21 22 23 24 26 28 29 29 29 29 30 30 29 29 29 29 29 29 30 31 31 32 33 33 33 33 32 31 30 27 26 26 26 26 25 24 22 17 13 10 9 12 17 22 25 24 22 22 23 24 24 24 25 25 26 26 26 27 28 28 28 28 28 28 27 27 27 27 27 27 28 28 28 28 30 32
19 20 20 20 19 19 19 20 21 22 23 24 25 26 27 28 28 28 28 27 27 26 26 25 26 26 27 27 28 29 30 30 30 30 30 30 30 29 28 26 26 26 26 26 25 24 22 21 20 19 18 14 15 19 22 23 23 22 22 20 20 22 25 26 26 26 26 26 26 27 27 27 27 27 26 27 27 26 26 27 27 27 27 27 27 27
20 20 20 20 19 19 20 21 22 23 25 25 26 26 26 25 25 24 24 24 23 23 23 23 23 25 25 26 27 27 28 28 28 28 28 28 28 28 27 26 26 26 26 25 25 24 22 21 21 22 22 21 21 21 23 24 24 23 22 19 19 22 26 26 25 25 26 26 26 27 27 27 28 27 27 27 28 28 27 27 27 28 28 27 26 26
20 20 20 20 20 21 22 23 23 24 24 24 23 23 23 22 23 23 23 22 22 22 22 22 22 23 24 24 25 24 24 25 25 25 26 26 26 26 26 26 25 25 25 25 24 23 23 22 21 21 21 21 20 19 20 22 23 22 20 19 21 23 24 25 24 24 25 26 27 28 27 26 26 27 27 27 27 28 28 28 28 29 28 28 27 27
20 20 21 21 21 22 23 23 22 21 21 21 21 21 22 22 23 23 22 21 21 21 22 22 22 22 22 23 24 24 24 24 24 24 24 25 25 24 24 25 25 26 26 24 23 22 23 22 21 20 20 20 19 18 17 19 20 21 20 20 20 19 17 21 24 25 25 26 26 26 26 26 26 27 27 27 27 27 28 28 28 28 28 27 27 28
20 21 21 21 21 21 21 20 19 19 19 20 21 21 22 22 22 22 21 20 21 21 22 22 22 22 21 21 23 24 25 24 24 24 23 23 22 22 23 24 25 26 26 25 23 21 22 22 21 21 21 20 19 18 17 17 18 19 19 20 19 18 16 19 23 25 25 26 26 26 27 27 28 29 28 28 27 27 26 26 26 26 27 27 28 28
20 20 20 20 19 19 19 19 19 19 20 20 21 21 22 22 22 21 20 20 20 21 22 22 21 20 19 20 22 23 24 25 24 24 23 22 21 20 21 23 24 25 25 24 24 23 21 21 21 21 21 20 19 18 17 17 17 18 19 20 20 21 21 23 23 23 24 25 26 27 28 30 30 29 27 26 25 25 24 25 25 26 26 27 27 28
19 19 19 19 19 19 19 19 19 19 20 20 20 21 21 21 21 21 20 20 20 20 21 21 19 17 17 19 21 22 23 24 24 24 23 22 22 22 22 22 22 22 23 23 24 24 24 23 22 22 21 20 18 17 17 16 15 16 18 20 21 22 22 22 22 23 24 25 26 28 30 31 30 27 24 24 24 24 24 24 24 26 27 28 28 28
18 18 19 19 19 19 19 19 19 19 19 20 20 20 21 21 21 20 20 20 20 20 21 20 19 17 17 18 20 20 20 21 23 24 23 23 23 23 22 22 22 22 22 23 24 25 26 26 25 24 21 17 16 15 16 15 15 15 18 20 21 21 21 22 22 23 24 25 26 28 30 30 28 24 23 23 23 23 23 24 25 26 28 28 28 28
17 18 19 19 19 19 19 19 18 18 19 20 20 20 20 20 20 20 19 20 20 20 19 19 18 18 18 19 19 20 20 20 21 22 23 23 23 23 23 23 23 23 23 23 24 24 25 25 25 24 21 18 15 13 14 15 15 16 18 19 20 20 20 21 23 24 25 25 27 29 29 28 25 23 24 23 23 22 23 24 24 25 26 26 26 27
18 18 19 19 19 18 18 18 18 18 19 20 20 20 20 20 20 20 19 20 20 19 18 18 17 17 18 19 20 20 20 20 20 21 22 23 23 23 23 24 24 23 23 23 23 23 22 22 21 20 19 18 16 14 15 16 17 18 18 18 18 18 19 21 23 24 24 25 27 29 28 26 25 24 23 21 20 20 22 23 24 24 24 24 24 25
18 18 18 18 18 18 18 18 18 18 19 19 19 20 21 20 20 20 19 19 19 18 17 17 17 17 17 18 19 20 19 19 20 20 22 22 22 22 23 23 23 23 22 21 21 20 20 19 18 17 16 14 13 14 16 17 18 19 18 18 18 18 18 20 22 23 24 25 27 27 28 26 26 25 23 20 19 19 21 22 22 23 24 24 24 26
18 18 18 17 17 18 18 18 18 18 18 19 19 19 20 20 20 19 19 19 18 18 18 18 17 17 17 18 19 19 19 19 19 20 21 22 22 21 21 21 21 20 19 17 16 15 13 11 12 14 15 13 12 12 14 16 18 18 18 18 18 18 18 19 21 23 24 25 25 26 26 25 25 24 22 20 18 16 16 18 21 24 25 26 26 27
Wind_Direction
294 296 298 298 299 298 296 296 297 297 297 297 297 296 296 295 293 291 291 290 289 288 287 286 286 286 285 285 284 283 282 281 280 280 279 279 279 279 279 279 279 280 280 280 281 281 282 282 282 282 282 282 282 281 281 281 281 281 280 280 280 280 280 279 279 279 278 278 278 277 277 277 276 276 275 274 274 273 273 273 272 272 271 271 270 269
296 297 297 298 298 297 296 297 297 296 296 296 296 296 296 295 293 292 291 290 289 287 286 286 286 285 284 284 284 283 282 281 280 279 279 279 279 279 279 278 279 279 279 280 280 280 280 281 281 281 281 281 281 281 281 280 280 280 280 279 279 279 279 279 279 279 278 278 278 278 277 277 276 276 275 275 274 274 273 273 272 272 271 271 270 270
298 298 298 298 298 296 296 297 297 297 295 295 295 295 295 294 293 292 291 291 289 288 285 285 285 284 284 283 283 282 282 281 280 280 280 279 279 279 279 279 279 279 279 279 279 279 279 279 279 279 279 280 280 280 280 280 280 279 279 279 279 278 278 278 278 278 278 278 277 277 277 276 276 275 275 274 274 273 273 272 271 271 271 270 270 269
296 297 297 299 299 297 295 296 297 298 297 296 295 295 294 293 291 291 291 290 289 288 285 285 284 284 283 283 283 282 282 281 281 281 281 281 280 280 280 281 280 279 279 279 278 277 277 277 278 278 278 279 279 279 279 279 279 279 279 278 278 278 278 278 277 277 277 277 277 276 276 275 275 274 274 274 273 273 272 272 271 270 270 269 269 269
294 295 296 298 299 297 296 296 297 298 298 296 295 294 293 292 290 290 290 290 289 288 287 286 285 284 283 283 282 283 283 283 282 282 282 282 282 281 281 281 280 279 279 278 277 276 276 277 277 277 277 278 277 277 278 278 278 278 278 278 278 278 278 277 277 277 276 276 276 275 275 275 274 274 273 273 273 272 272 271 271 270 270 269 269 268
292 293 295 296 296 296 297 297 298 298 298 297 296 294 293 291 290 290 290 290 289 289 288 288 286 285 283 282 282 283 284 283 283 282 281 281 281 281 280 279 278 278 277 277 276 276 276 275 275 276 276 276 276 276 277 277 277 277 277 277 277 277 277 277 277 276 276 275 275 275 274 274 273 273 272 272 272 272 271 271 271 270 270 269 269 268
292 292 294 294 293 294 295 296 296 297 297 297 296 295 294 293 292 291 290 289 288 289 289 288 287 285 283 282 282 282 283 283 283 282 282 281 279 279 278 277 276 275 275 275 275 275 275 274 274 274 274 274 274 275 275 275 275 275 275 275 275 275 275 275 275 275 275 275 274 274 273 273 272 272 272 271 271 271 271 270 270 270 270 269 269 268
291 292 293 293 294 295 295 294 294 294 294 294 295 296 296 295 294 293 292 290 289 288 289 289 288 286 284 283 283 283 282 282 282 281 281 281 279 277 276 274 272 272 272 272 272 273 273 272 272 271 272 272 272 272 273 273 273 273 273 273 273 273 273 273 273 273 273 273 273 272 272 272 271 271 270 270 270 270 270 270 270 270 269 269 269 268
287 290 291 292 292 294 296 296 295 294 294 293 292 293 295 296 297 296 295 294 292 291 291 290 290 289 288 287 286 285 285 283 281 279 279 279 278 277 276 274 272 270 270 270 270 271 271 271 270 270 270 270 270 270 271 271 271 271 271 271 270 270 270 271 271 271 271 271 271 271 271 270 270 270 269 269 269 269 269 269 269 269 269 269 269 268
283 286 289 290 290 291 293 294 296 296 296 293 291 290 291 293 295 297 298 297 296 295 294 292 291 292 292 292 291 289 287 285 283 281 280 279 278 277 275 274 272 271 270 269 269 270 270 270 270 270 270 270 270 270 270 269 269 269 268 268 268 268 268 268 269 269 269 269 269 269 269 269 269 269 269 269 269 268 269 269 269 269 269 269 268 268
284 286 288 290 292 291 291 292 294 297 297 295 293 291 289 289 292 295 298 298 299 299 298 295 293 292 294 295 294 293 290 288 286 284 282 281 279 277 276 275 273 272 272 270 270 270 270 270 270 270 270 270 271 270 270 268 268 267 267 267 267 267 267 267 267 268 268 268 268 268 269 269 269 269 269 269 269 269 269 269 269 269 269 268 268 268
286 288 289 291 292 293 293 293 295 296 298 297 296 295 294 293 293 294 294 296 298 299 299 298 295 293 293 294 295 295 293 290 288 286 285 283 282 280 279 278 276 275 274 272 270 270 269 269 269 269 269 269 269 268 268 267 267 266 266 266 266 267 267 267 267 268 268 268 268 269 269 269 269 269 269 269 269 269 269 269 269 269 268 268 268 268
285 287 289 290 291 292 294 296 297 298 298 297 296 296 297 298 298 296 294 292 294 297 298 298 297 296 294 294 294 295 294 292 290 288 287 286 286 286 285 284 282 280 278 275 273 272 271 270 268 268 269 268 267 266 266 266 266 266 266 266 267 267 267 267 268 268 268 269 269 270 270 270 270 269 269 269 269 269 269 269 269 268 268 268 268 267
286 287 288 289 289 291 293 295 296 296 296 295 295 295 296 297 298 297 295 293 293 295 297 297 296 296 296 296 295 294 293 291 290 289 288 288 288 290 290 288 287 284 282 280 278 277 275 274 272 271 271 270 268 266 265 265 265 265 266 266 267 268 268 269 269 269 269 270 270 270 270 270 270 270 270 269 269 269 269 269 268 268 268 268 268 267
286 288 288 288 289 290 292 293 293 293 293 294 295 295 296 296 297 296 295 294 295 297 298 297 297 296 296 296 297 296 293 292 291 290 290 290 291 292 293 291 288 286 284 283 281 280 281 279 277 276 275 274 271 269 267 266 266 267 268 267 268 268 269 270 270 270 270 270 270 270 270 270 270 270 270 270 269 269 269 269 268 268 268 268 268 267
285 286 286 287 288 289 290 290 291 291 292 294 295 295 295 295 296 296 294 295 296 298 299 299 299 299 298 298 298 298 297 295 293 293 292 292 293 293 294 292 290 288 287 286 285 284 284 282 281 279 278 276 274 273 270 270 269 269 270 270 271 271 271 271 271 271 270 270 270 270 270 270 270 270 270 269 269 269 269 269 268 268 268 268 267 267
283 283 283 284 286 287 289 289 289 290 292 294 294 294 293 293 294 294 294 294 296 297 297 298 299 300 301 301 301 300 300 300 298 295 294 292 293 293 294 292 289 288 288 287 286 285 285 283 281 280 279 277 276 275 273 272 272 272 273 273 273 273 273 272 271 271 271 270 270 270 270 270 270 270 269 269 269 269 268 268 268 268 268 267 267 267
281 281 282 283 284 286 288 289 290 290 292 293 294 295 294 293 293 293 293 294 294 295 295 296 295 295 297 299 299 300 302 302 299 296 293 291 292 293 294 291 288 287 287 286 285 284 283 281 278 276 277 277 276 275 274 274 274 274 274 274 274 273 273 272 271 271 270 270 269 269 269 269 269 269 269 269 268 268 268 268 268 267 267 267 267 266
280 280 280 281 283 284 286 287 289 291 292 293 295 295 295 294 294 293 291 291 291 291 292 292 292 292 292 293 295 298 302 301 299 295 292 291 291 293 294 292 289 286 285 285 284 284 282 280 277 276 276 276 276 275 275 274 274 274 274 274 273 273 272 271 271 270 269 269 269 269 269 269 269 269 269 268 268 268 268 268 267 267 267 267 266 266
279 278 278 280 282 284 285 286 287 289 291 293 294 293 292 293 293 292 291 291 290 290 289 289 289 290 291 292 294 297 301 301 298 294 291 290 291 292 294 292 289 286 285 284 284 284 283 282 282 282 281 280 278 277 275 274 274 274 273 273 273 272 272 271 270 270 269 269 268 268 268 268 268 268 268 268 268 268 268 268 268 267 267 267 266 266
275 276 277 278 280 282 283 285 287 289 290 292 292 290 288 290 291 291 291 292 292 291 291 289 288 290 292 293 294 297 300 300 298 294 292 291 290 291 293 292 290 287 285 285 286 286 286 284 284 284 283 283 282 281 279 278 277 275 274 274 273 272 272 271 271 270 269 269 268 268 267 267 267 267 267 268 268 268 268 268 268 268 268 267 267 266
271 274 277 277 277 278 280 283 285 287 288 288 287 286 286 288 290 292 293 294 294 293 292 291 290 291 293 293 294 295 297 296 293 290 290 289 288 289 292 293 291 287 285 286 288 289 288 286 286 285 285 284 284 283 282 281 280 279 278 276 275 274 273 272 272 271 270 269 269 268 267 267 267 266 266 266 267 267 268 268 268 268 268 268 267 267
266 270 274 276 275 275 277 280 282 284 285 284 283 283 285 288 290 292 293 295 295 295 295 294 294 294 293 292 292 293 293 292 289 287 286 284 286 290 293 294 292 289 287 288 289 290 289 287 286 286 285 285 284 284 283 282 281 281 279 278 277 276 275 275 274 273 272 271 270 269 268 268 267 267 266 266 266 266 267 267 267 268 268 268 267 267
265 267 271 273 273 274 276 278 282 286 288 288 288 289 290 291 291 292 293 295 296 297 297 297 296 295 293 292 292 291 291 290 288 286 284 283 286 289 292 293 292 289 287 288 290 290 289 288 287 286 285 285 285 284 283 282 282 280 279 278 277 277 277 276 276 275 274 273 272 271 271 270 269 268 267 267 266 266 266 266 266 266 267 267 267 267
267 269 271 274 277 280 282 285 287 289 290 291 291 291 292 293 294 295 296 297 297 297 296 296 294 293 293 294 293 292 292 292 289 286 284 285 286 288 290 291 290 288 288 289 290 290 289 288 287 287 286 285 284 284 283 282 281 280 279 278 277 276 276 276 276 275 275 274 273 272 272 271 270 269 268 268 267 267 266 266 266 266 266 266 266 266
275 278 282 285 286 287 287 288 288 288 289 289 290 291 294 297 300 300 298 297 296 296 296 294 292 291 293 293 293 292 294 294 292 288 286 286 288 289 290 290 289 288 288 290 291 291 289 288 288 288 287 285 284 284 283 282 281 280 279 277 276 275 275 275 275 276 275 274 273 272 271 270 270 269 268 268 268 267 267 266 266 266 265 265 265 265
283 285 286 287 287 287 287 288 288 288 288 288 290 293 297 301 301 298 294 293 294 295 293 292 290 291 294 294 293 293 295 296 295 292 289 287 286 287 289 291 290 289 289 291 291 291 289 288 288 288 287 286 285 283 283 282 280 279 278 277 276 275 274 274 275 275 275 274 272 271 270 270 269 269 269 268 268 268 267 267 266 266 266 266 265 265
286 286 286 286 287 287 287 287 288 288 289 289 291 294 296 297 295 291 289 291 293 293 290 288 289 291 294 294 294 294 295 295 294 293 291 288 284 284 288 292 293 292 292 293 293 292 290 287 287 287 286 286 285 283 282 281 280 278 277 277 276 275 274 273 273 274 274 273 272 272 271 271 270 269 268 268 268 267 267 267 266 266 266 266 265 264
289 288 288 288 287 287 288 288 288 289 290 291 291 292 292 290 286 284 285 289 292 290 288 287 288 289 291 293 294 294 293 292 293 295 296 292 287 286 290 294 294 294 295 295 295 294 291 288 287 286 284 286 286 286 284 284 283 282 281 280 278 276 275 274 274 274 274 273 273 273 273 272 271 269 269 268 267 267 267 266 266 266 266 265 264 263
292 292 290 289 289 289 289 290 290 290 291 291 291 290 289 285 281 280 283 286 286 285 284 285 287 288 290 293 294 293 293 294 297 301 303 299 293 291 294 294 293 294 296 297 297 295 293 292 291 289 288 288 289 289 289 288 287 286 284 283 281 279 277 275 275 275 274 274 274 275 274 273 272 270 270 269 268 268 267 266 266 266 265 264 263 262
294 294 292 292 292 292 292 291 291 291 292 291 291 290 287 284 281 279 280 280 280 280 280 283 285 287 288 291 292 292 293 297 301 305 305 300 294 292 294 293 292 292 293 292 292 295 297 297 296 296 295 294 293 293 292 291 290 288 287 284 282 280 278 276 275 275 274 275 276 276 275 274 273 272 272 271 270 269 268 267 267 266 265 264 263 261
295 294 294 293 293 293 293 292 292 292 291 291 291 290 288 285 282 280 278 277 276 276 278 280 283 285 286 286 286 285 290 297 300 304 304 299 293 292 293 292 292 292 293 289 285 286 295 299 300 300 299 299 298 297 296 295 293 291 289 286 283 281 280 279 277 277 277 277 278 278 278 277 276 275 274 272 271 270 269 268 267 266 265 264 263 261
295 295 294 294 294 293 292 292 291 291 290 290 289 289 288 286 283 281 279 278 277 276 277 280 283 286 287 288 287 286 289 293 297 301 302 299 295 294 294 293 293 294 295 292 287 284 284 288 298 301 303 303 303 303 302 300 298 296 295 293 290 289 290 289 288 286 285 285 285 285 284 283 282 280 278 276 274 273 271 269 268 266 265 264 263 262
296 295 294 294 293 293 292 292 292 291 290 289 288 287 286 285 284 283 282 281 280 279 279 281 283 286 289 290 289 289 290 292 296 300 301 299 295 294 294 294 294 296 297 296 293 290 289 292 298 304 306 306 305 304 304 303 303 304 306 307 307 307 307 307 305 302 299 297 295 294 292 290 288 286 284 281 279 276 274 272 270 268 266 265 264 263
296 295 294 293 293 293 293 294 293 292 291 289 288 288 286 286 286 286 285 285 284 283 282 281 281 282 284 286 288 289 291 294 297 300 300 297 294 293 295 295 297 299 299 298 298 299 300 301 303 305 305 305 304 303 303 304 306 310 314 316 317 317 315 314 312 309 306 303 300 298 296 294 292 290 287 284 282 279 277 275 273 271 269 267 266 265
294 293 293 292 293 293 293 293 293 293 292 291 290 289 289 289 289 289 288 287 287 285 284 283 281 281 280 281 282 284 287 292 296 298 298 297 296 296 297 297 298 299 299 300 304 307 308 305 303 302 301 300 301 302 303 304 307 309 311 312 312 312 310 309 308 307 305 303 301 299 297 295 293 290 289 287 285 283 281 279 277 275 273 271 268 267
291 291 291 291 292 293 292 293 292 292 292 293 293 293 293 292 291 291 290 289 288 287 286 285 284 283 282 281 280 282 285 290 294 297 298 299 299 298 297 296 297 298 300 304 307 308 306 302 300 299 298 295 295 300 302 304 306 306 306 307 308 307 306 305 305 305 304 303 302 300 299 297 295 293 291 290 288 286 285 283 281 278 276 274 271 269
290 290 291 292 292 292 292 292 292 293 294 295 295 296 295 294 293 292 291 290 290 289 288 287 287 287 287 286 286 287 289 292 294 297 298 298 298 296 295 295 297 300 303 304 304 302 300 296 295 296 295 296 296 297 299 302 303 303 304 305 305 304 304 304 305 305 305 304 302 301 299 298 296 294 292 291 289 287 284 282 281 280 278 276 274 272
289 290 291 291 292 292 292 292 293 294 295 295 295 295 295 295 294 292 291 291 291 291 291 290 290 290 291 292 293 293 293 294 295 296 297 298 297 296 296 297 299 302 302 301 298 295 293 292 292 293 294 297 298 298 298 299 300 301 304 306 306 305 305 305 306 306 305 304 303 301 299 298 297 295 293 291 289 287 285 284 282 281 280 278 277 276
289 289 290 290 291 291 291 292 293 294 295 296 296 296 296 295 294 294 293 293 293 293 294 295 294 294 295 295 295 296 296 296 297 298 299 299 300 300 299 299 299 300 300 299 296 294 291 290 290 291 292 293 295 297 299 299 300 302 306 307 307 308 308 308 307 306 305 304 303 301 300 300 298 296 294 292 290 288 286 286 285 284 283 281 280 279
289 290 291 291 292 292 292 292 293 294 295 296 297 297 296 296 295 295 296 296 296 297 299 299 300 300 299 299 298 298 299 299 300 301 302 302 302 302 301 299 298 298 299 299 297 295 293 291 290 291 292 292 293 295 297 298 300 303 305 305 304 305 307 307 308 308 308 306 304 303 301 301 299 297 294 292 290 288 285 284 283 283 282 280 278 277
290 290 291 292 293 293 293 294 294 295 297 297 296 295 295 295 296 296 297 297 299 302 305 306 306 305 304 303 303 303 303 304 304 304 304 303 303 302 301 300 299 299 300 299 298 296 294 292 291 291 292 293 294 295 297 298 300 303 305 304 305 307 309 310 311 312 311 309 306 305 303 301 299 296 294 291 289 288 286 283 282 281 280 278 276 273
291 291 291 292 292 293 294 295 296 298 298 298 297 296 296 296 296 296 296 297 300 304 307 308 308 306 305 305 307 308 308 308 307 307 306 304 303 302 301 300 300 300 300 299 297 296 296 294 292 291 292 294 294 294 295 298 302 305 306 308 310 313 313 313 314 314 313 310 308 306 304 302 299 296 294 292 290 288 287 285 283 281 278 276 274 272
290 290 291 291 293 294 295 296 297 299 300 299 298 297 297 298 298 297 297 298 300 304 307 309 309 307 305 306 308 310 311 311 311 310 308 306 304 303 301 301 301 301 301 297 295 295 297 298 297 296 296 297 295 294 295 298 302 305 308 312 315 314 311 311 313 314 313 311 310 309 307 304 302 299 296 293 291 289 287 285 283 281 279 277 274 272
289 290 291 293 294 296 297 297 299 300 300 299 298 297 298 300 300 299 298 299 302 305 307 309 309 308 307 307 309 310 311 312 312 312 311 309 307 305 304 304 303 303 302 298 296 294 295 297 298 300 301 299 296 293 294 297 300 304 309 315 317 315 310 310 312 313 314 313 312 311 310 308 306 302 298 295 292 290 288 286 284 283 281 280 277 275
291 292 294 296 297 297 297 298 300 300 300 299 299 300 301 302 302 301 300 302 303 305 307 308 306 304 304 306 309 311 312 312 313 314 314 313 313 312 310 309 307 306 304 302 300 298 295 294 295 298 300 300 296 292 291 293 298 305 311 316 318 316 314 314 314 315 315 315 314 313 313 312 309 304 299 297 295 293 291 289 286 285 284 283 282 279
293 294 296 298 298 298 298 299 300 301 301 301 301 302 303 304 304 304 304 305 306 306 307 307 305 302 300 304 307 309 310 310 312 314 316 316 317 316 316 315 313 311 308 306 305 303 301 299 297 296 295 295 295 294 293 295 301 308 314 316 317 316 315 315 316 317 318 317 315 315 315 314 311 306 302 301 299 297 295 293 291 289 288 287 285 283
296 297 298 299 299 298 299 300 302 301 301 302 303 303 304 305 306 307 308 309 308 307 306 306 305 303 303 304 305 306 307 308 310 313 315 317 318 319 319 319 318 316 314 310 308 305 304 304 303 300 295 290 288 290 294 300 307 311 313 314 315 315 315 315 317 319 319 318 317 316 316 314 311 308 306 304 302 300 299 299 297 295 293 291 289 287
297 298 298 298 298 298 299 302 303 303 302 302 303 304 306 308 309 310 309 309 309 307 306 305 304 304 305 305 306 307 308 309 310 312 315 317 318 319 320 320 320 319 317 313 310 307 306 305 305 304 301 293 287 288 296 305 310 312 312 312 312 313 314 315 317 319 320 319 318 318 317 314 311 309 306 303 302 301 301 302 301 300 299 297 295 293
297 296 296 296 297 298 300 303 303 303 302 302 303 305 307 309 310 310 310 310 309 308 306 305 304 303 304 305 307 308 309 310 311 313 315 316 318 319 319 320 321 321 319 317 315 313 312 310 309 308 307 301 296 298 306 311 313 313 312 311 313 314 314 316 318 319 320 320 319 318 317 316 315 313 309 306 304 304 305 306 306 306 306 305 303 301
297 297 296 297 297 299 301 302 302 301 301 302 303 305 308 309 311 312 312 313 312 310 308 307 305 303 303 305 306 308 309 310 311 312 313 315 317 317 318 319 321 321 320 319 319 320 319 317 315 315 314 310 308 310 313 315 315 314 313 313 315 317 317 317 318 320 320 320 319 319 318 318 318 318 316 313 310 309 310 311 311 311 312 311 310 308
Height
794 792 791 791 790 788 784 784 784 783 779 778 777 776 775 774 772 771 769 768 767 765 763 762 760 758 757 756 755 754 753 753 751 750 748 747 746 745 743 742 741 740 739 738 737 735 734 733 731 730 728 727 726 725 724 723 722 721 720 719 718 718 717 716 715 714 713 713 712 711 711 710 710 709 708 708 708 707 707 706 706 705 705 704 704 703
793 791 790 789 788 786 782 781 782 782 778 776 775 774 773 771 769 768 766 765 764 763 761 759 757 755 754 752 751 751 750 749 748 747 745 744 743 741 740 739 738 737 736 734 733 732 731 729 728 726 725 724 723 722 721 720 719 718 717 716 715 714 713 713 712 711 710 709 708 708 708 707 706 706 705 705 704 703 703 703 702 702 701 701 700 700
791 789 788 787 786 785 781 779 779 779 778 775 773 772 771 769 767 765 763 762 761 759 758 757 755 753 750 749 748 747 746 745 744 743 742 740 739 738 737 736 734 733 732 731 730 728 727 726 724 723 722 721 719 718 717 716 715 714 713 713 712 711 710 709 708 708 707 706 705 705 704 703 703 702 702 701 701 700 700 699 698 698 698 697 697 696
791 788 786 785 784 782 780 778 777 776 775 773 771 769 768 767 764 762 761 759 758 756 754 753 752 749 747 746 744 743 743 742 741 739 738 737 736 735 733 733 731 730 729 727 726 724 723 722 721 719 718 717 716 715 714 713 712 711 710 709 708 707 706 705 705 704 703 702 702 701 700 700 699 698 698 698 697 697 696 695 695 694 694 693 693 693
789 788 785 784 782 779 778 777 776 774 773 771 769 768 766 764 762 760 758 756 755 753 751 750 748 747 744 743 741 740 739 738 737 736 735 733 733 731 730 729 728 726 725 723 722 721 719 718 717 716 715 714 713 711 710 709 708 707 706 705 705 704 703 702 701 700 699 698 698 697 697 696 695 695 694 694 693 693 692 692 691 690 690 689 689 688
787 787 785 784 781 778 776 775 774 773 771 769 767 765 763 761 759 757 755 753 752 750 748 747 745 743 742 739 738 736 735 734 733 732 731 730 728 727 726 725 723 722 721 719 718 717 715 714 713 712 711 710 709 708 707 706 705 703 703 702 701 700 699 698 698 697 696 695 694 693 693 692 691 691 690 690 689 689 688 688 687 687 686 686 685 685
785 785 785 783 780 778 776 774 773 772 770 767 764 762 760 758 757 755 752 750 749 747 745 743 741 739 738 736 734 732 731 729 728 727 726 725 724 723 721 720 718 717 716 715 713 712 711 710 709 708 707 706 705 704 703 702 701 700 699 698 697 696 695 694 693 693 692 691 690 689 688 688 687 687 686 686 685 685 684 684 683 683 682 682 681 681
784 782 783 782 779 776 773 772 771 770 769 766 763 760 757 754 753 751 749 747 746 744 742 739 737 735 734 733 731 729 728 726 724 722 721 720 719 718 716 715 713 712 711 710 709 708 707 706 705 704 703 702 701 700 699 698 697 696 695 694 693 692 691 690 689 688 688 687 686 685 684 684 683 683 682 682 681 681 680 680 679 679 678 678 677 677
785 782 780 779 778 775 771 768 768 768 768 765 762 759 755 752 749 747 746 744 743 742 740 738 734 732 730 729 728 727 725 723 721 719 717 716 714 713 711 710 708 707 706 705 704 703 703 702 701 700 699 698 697 696 695 694 693 692 691 690 689 688 687 686 685 684 683 683 682 681 680 680 679 678 678 677 677 677 676 676 675 675 674 674 673 673
785 782 779 777 776 775 772 766 764 764 765 763 761 758 756 752 748 744 742 740 739 739 738 736 733 729 727 726 725 724 722 719 718 716 715 713 711 709 707 706 704 703 702 701 700 699 698 698 697 696 695 694 693 692 691 690 689 688 687 686 685 684 683 682 681 680 679 678 678 677 676 676 675 674 674 673 673 673 672 672 671 671 670 670 669 669
783 781 778 775 773 771 770 767 763 762 762 760 758 755 754 752 749 745 740 736 734 734 734 733 732 729 726 723 722 721 719 716 713 712 710 709 707 706 704 702 700 699 698 697 696 695 694 694 693 692 691 690 689 688 687 686 685 684 683 682 681 680 679 678 677 676 675 674 674 673 672 672 671 671 670 670 669 669 668 668 667 667 667 666 666 665
781 779 777 774 771 769 767 765 763 761 760 758 755 752 750 749 749 746 742 736 733 731 730 729 728 727 725 723 720 718 716 714 711 708 706 705 703 702 700 698 696 695 694 693 692 691 690 690 689 688 687 686 685 684 683 682 681 680 679 678 677 676 675 674 673 672 671 671 670 669 669 668 668 667 666 666 665 665 664 664 663 663 663 662 662 661
780 778 775 772 770 768 765 763 761 759 758 756 754 751 747 746 746 745 742 737 733 731 729 726 723 722 722 721 719 717 714 711 708 706 704 702 701 700 698 696 693 692 691 689 688 687 686 686 685 684 683 682 681 680 679 678 677 676 675 674 673 673 672 671 670 669 668 667 666 666 665 664 663 663 663 662 661 661 660 660 659 659 658 658 658 657
778 776 774 771 768 766 764 763 760 758 756 754 753 750 747 745 743 742 739 735 732 730 728 725 721 718 718 718 717 715 712 709 705 703 701 699 698 698 697 694 691 689 689 687 685 684 683 683 681 680 679 678 677 676 675 674 673 672 672 671 670 669 668 667 666 665 664 663 662 662 661 660 659 659 658 658 657 657 656 655 655 654 654 654 653 653
776 774 772 769 766 764 763 761 759 756 754 752 751 748 746 743 742 740 738 734 730 728 726 723 718 715 713 714 714 713 711 707 703 700 697 695 695 696 695 692 688 686 686 685 683 681 681 680 679 677 675 674 673 672 671 671 670 669 668 667 666 665 664 663 662 661 660 659 658 658 657 656 655 655 654 653 653 652 652 651 651 650 650 649 649 649
775 773 770 767 764 762 761 760 758 755 752 750 749 747 745 742 740 738 737 733 730 727 725 721 716 711 707 708 711 712 710 706 702 698 695 691 690 693 694 691 687 683 682 682 681 679 678 677 676 674 673 671 670 669 668 668 667 666 665 664 663 662 661 660 659 658 657 656 655 654 653 653 652 651 650 649 649 648 648 647 647 646 646 645 645 645
773 772 769 766 763 760 758 757 756 753 751 749 747 745 744 741 739 737 735 732 729 726 723 721 717 711 704 702 704 708 709 706 701 696 693 688 687 688 691 690 685 680 678 678 677 676 675 673 672 671 670 668 668 667 666 664 663 663 662 661 660 658 658 656 655 654 653 652 651 650 649 648 648 647 646 645 645 644 644 643 643 642 642 641 641 641
771 769 767 764 761 758 756 755 753 752 750 748 745 743 741 739 738 736 733 731 729 726 722 719 717 713 708 702 699 702 706 705 700 694 690 685 683 684 688 687 683 678 675 673 673 672 671 669 668 666 665 664 664 663 662 661 660 659 658 657 656 655 653 652 651 650 649 648 647 646 645 644 643 643 642 641 640 640 639 639 638 638 638 637 637 636
768 767 765 763 759 757 755 753 752 750 748 746 744 741 738 736 735 734 732 730 728 725 722 718 715 712 709 703 699 699 703 703 699 693 688 683 679 680 683 683 680 675 672 670 669 668 667 665 664 663 662 660 659 659 658 657 656 655 654 653 652 651 649 648 647 646 645 644 643 643 642 641 640 639 638 637 636 636 635 635 634 634 633 633 633 632
766 764 763 761 758 755 752 751 750 748 747 745 743 740 737 734 733 731 729 727 725 723 720 717 713 709 707 703 699 698 701 701 698 692 686 681 677 677 680 680 677 672 669 667 666 666 664 662 661 659 658 657 656 655 654 653 652 651 650 649 648 647 645 644 643 642 641 640 639 639 638 637 636 635 634 633 632 632 631 630 630 629 629 629 628 628
763 760 759 759 757 754 750 748 747 746 746 744 742 738 735 732 730 728 726 724 722 719 717 714 711 707 705 702 699 697 699 700 697 691 684 678 674 674 677 677 674 670 666 663 663 663 662 660 658 656 655 654 653 652 651 650 648 647 646 645 644 643 641 640 639 638 637 636 636 635 634 633 632 631 630 629 628 627 627 626 626 625 625 624 624 623
761 757 755 756 755 753 749 746 744 743 743 742 740 737 733 731 728 725 723 722 720 717 714 711 708 706 704 702 698 697 698 698 696 691 685 678 671 670 673 674 672 668 663 661 660 659 658 657 655 653 652 651 650 649 648 647 645 644 643 642 640 639 638 636 635 634 633 633 632 631 630 629 628 627 626 625 625 624 623 622 621 621 620 620 619 619
758 755 753 752 751 750 747 744 742 741 740 739 737 735 733 730 727 724 721 720 718 715 712 708 706 704 703 700 698 696 696 696 694 691 686 678 670 667 670 672 669 665 661 658 658 657 655 653 652 650 649 648 647 645 644 643 642 641 639 638 637 635 634 633 632 631 630 629 628 627 626 625 624 623 622 621 621 620 619 618 617 617 616 616 615 615
754 752 750 749 748 746 745 743 741 739 738 737 735 733 730 729 726 723 721 718 716 713 710 707 704 701 698 698 696 694 693 693 692 689 685 678 671 668 668 669 667 662 658 656 656 655 652 650 648 647 646 644 643 642 641 640 638 637 636 635 633 632 631 629 628 627 626 625 624 623 622 621 620 619 618 617 616 616 615 614 613 613 612 612 611 610
752 750 748 747 746 744 743 742 740 738 737 735 733 731 728 726 724 722 719 717 715 713 710 707 703 699 696 695 693 691 689 690 689 687 683 677 671 667 666 667 665 660 655 653 653 653 650 647 645 643 643 641 640 638 638 636 635 633 632 631 630 629 627 626 624 623 622 621 620 619 618 617 616 615 614 613 612 611 611 610 609 609 608 608 607 606
751 749 748 746 745 743 742 740 738 737 735 733 731 729 727 724 722 719 717 715 714 712 709 705 701 697 694 693 691 688 687 687 687 685 683 678 671 666 664 665 663 659 654 651 650 650 648 645 642 640 639 637 636 635 634 633 631 630 629 628 626 625 624 622 621 619 618 617 616 615 614 613 612 611 610 609 608 607 606 606 605 605 604 603 603 602
750 748 746 744 743 741 739 737 735 734 732 731 729 728 726 724 721 718 715 713 713 711 708 704 700 695 693 691 689 687 685 685 684 683 681 678 672 665 662 662 661 658 653 649 648 647 646 643 639 637 636 634 632 631 630 628 627 626 625 623 623 621 620 619 618 616 614 613 612 610 609 608 607 606 605 604 604 603 602 602 601 601 600 599 598 597
747 745 743 741 739 737 736 734 732 731 729 728 727 726 725 724 721 717 713 712 711 710 707 704 700 696 692 689 687 685 684 683 682 680 679 676 671 665 661 661 659 657 653 648 645 643 643 640 638 634 632 630 628 627 625 624 623 622 621 620 619 618 617 615 614 612 610 609 607 606 605 604 603 602 601 600 599 599 598 598 597 597 596 596 594 593
743 741 739 738 736 734 733 731 729 728 726 725 724 724 723 722 720 716 713 711 711 709 705 703 700 696 693 688 685 683 681 680 679 678 677 674 669 664 662 660 658 656 653 648 642 638 638 636 635 632 629 627 625 624 622 621 620 619 618 617 616 614 613 612 610 608 607 605 603 602 601 600 598 598 597 596 595 594 594 593 593 593 592 591 590 588
739 738 736 734 733 732 730 728 726 724 723 722 722 721 720 719 717 715 712 711 710 708 704 701 698 696 693 689 684 680 677 676 677 677 676 673 668 663 661 659 657 655 653 649 642 635 630 630 630 630 628 625 623 621 620 618 617 616 615 613 612 611 610 608 607 605 603 601 599 598 597 596 594 593 593 592 591 590 589 589 589 589 588 587 585 583
736 734 733 731 729 728 727 725 723 722 720 719 718 718 717 716 715 713 711 710 708 706 703 700 697 694 692 689 685 679 674 673 674 676 675 672 667 662 660 658 655 653 653 651 645 636 627 623 624 626 626 624 621 619 618 617 615 614 612 610 609 607 606 604 603 601 599 597 596 594 593 592 591 590 588 588 587 586 585 585 585 585 584 582 581 579
733 732 730 728 727 725 724 722 720 719 718 717 716 715 714 713 712 710 709 708 706 704 701 698 695 693 691 689 686 681 675 672 673 674 674 671 666 661 659 657 654 650 650 649 647 641 632 624 620 621 623 622 620 618 616 615 613 612 610 608 605 603 602 601 600 598 596 594 593 591 590 589 588 586 585 584 583 582 582 581 581 581 580 578 577 575
731 729 728 726 724 723 721 720 718 717 716 714 713 712 711 710 709 708 707 705 704 702 700 697 694 692 689 687 684 680 676 673 673 673 673 670 665 661 658 656 653 649 647 645 644 641 635 628 623 620 619 619 618 617 615 613 612 610 608 606 603 601 600 599 598 597 595 593 591 589 588 586 585 583 582 581 580 579 578 577 577 577 576 574 573 571
728 727 725 724 722 720 719 717 716 715 714 713 711 710 709 708 707 706 705 703 702 700 699 697 694 691 688 685 681 678 674 673 672 672 671 669 665 660 656 654 651 648 645 642 640 637 633 629 626 623 619 617 616 616 614 612 610 609 607 606 603 602 600 599 598 596 594 592 590 588 586 584 583 581 579 578 577 575 574 573 573 572 572 571 569 568
726 724 723 722 720 718 717 715 714 713 712 711 709 708 707 706 705 703 703 701 700 698 697 695 693 690 688 684 680 676 672 670 670 670 669 667 664 659 655 653 650 648 645 641 638 635 632 629 627 625 621 617 614 613 613 611 610 608 606 605 603 602 600 598 596 594 592 590 588 586 584 582 580 578 577 575 573 572 571 570 569 568 568 567 566 565
724 723 721 720 718 717 715 713 712 711 710 708 708 706 705 704 703 702 700 699 698 696 694 692 690 688 686 683 680 676 671 669 668 668 667 665 663 659 655 652 649 648 645 641 638 635 633 629 626 624 622 618 613 610 609 609 608 607 605 603 602 600 598 597 595 593 590 588 586 583 582 580 578 576 574 572 571 569 568 567 566 564 563 563 562 561
723 721 719 718 717 715 713 712 711 710 708 707 706 704 703 702 701 699 698 696 695 693 691 689 687 685 683 681 678 675 671 668 667 666 665 664 662 659 655 652 649 647 645 642 639 636 634 630 626 622 620 618 614 611 608 606 606 605 603 602 601 599 596 594 593 591 589 587 584 582 580 578 576 574 572 570 568 567 565 563 562 561 560 559 558 557
721 719 718 716 715 714 712 711 709 708 707 705 704 703 701 700 698 697 695 693 691 690 688 686 683 682 680 678 676 673 671 668 666 665 664 662 661 658 655 651 648 646 645 643 640 637 634 630 626 621 618 615 613 611 608 606 604 603 601 600 599 597 595 593 591 589 588 585 583 580 578 576 574 572 569 568 566 564 562 560 558 558 557 555 553 552
720 718 716 715 713 713 711 709 708 707 705 704 703 701 699 697 696 694 692 690 688 687 685 683 681 679 677 676 674 672 670 667 665 663 662 660 658 657 654 651 648 646 644 643 640 637 634 630 626 622 618 614 611 609 607 606 604 602 600 598 596 595 593 591 589 587 586 583 581 578 576 574 572 570 568 566 564 562 560 558 556 555 553 552 550 548
718 716 714 713 712 711 710 708 707 705 704 702 700 699 697 695 693 691 689 688 686 684 683 681 679 677 675 673 672 669 667 665 663 662 660 658 657 655 653 651 648 645 643 640 638 636 633 629 625 622 619 616 612 608 606 604 603 601 599 597 595 592 591 589 588 585 583 582 579 577 574 572 570 568 566 564 562 560 558 556 554 553 551 550 548 545
717 714 713 712 711 710 708 707 705 704 702 700 698 697 695 693 691 689 687 685 684 683 681 679 677 675 673 671 669 667 665 663 661 660 658 657 655 653 652 649 647 644 641 638 636 633 631 628 624 621 618 615 612 609 606 604 602 601 599 597 594 592 589 588 586 584 582 580 578 576 573 571 568 566 564 562 560 558 556 554 552 550 549 548 546 544
715 713 712 710 709 708 706 705 703 702 701 699 697 695 694 692 690 688 686 683 682 680 679 677 675 672 670 668 666 664 663 661 659 658 657 655 653 652 650 648 646 643 640 638 634 632 629 627 623 620 617 615 612 608 605 603 601 600 599 597 594 591 588 586 584 583 581 579 576 574 572 569 567 564 562 560 557 555 553 552 550 548 547 545 543 541
714 712 711 709 708 706 705 703 702 700 699 698 696 694 692 691 689 687 684 682 680 678 677 675 673 671 668 665 663 661 660 659 658 656 654 653 651 650 648 646 644 642 639 637 633 629 627 624 622 619 617 614 612 609 605 603 600 599 598 596 594 591 588 584 582 581 580 578 575 573 570 568 565 563 560 557 555 553 551 549 547 546 544 542 540 538
713 711 709 708 706 705 703 702 700 699 698 696 694 692 691 689 688 686 683 681 679 678 676 674 672 669 667 664 661 659 657 656 655 653 652 651 649 648 646 644 642 640 638 636 632 628 625 622 620 618 615 613 611 608 605 603 600 598 597 595 594 593 590 586 583 581 578 576 574 572 569 567 563 560 558 555 552 550 548 546 544 542 540 538 537 534
711 709 708 707 705 704 702 701 699 698 696 694 693 691 689 688 686 684 683 680 678 676 675 673 671 668 665 663 660 658 655 653 652 651 649 648 648 646 644 643 640 638 636 634 631 628 625 622 618 615 613 612 610 608 605 603 600 598 596 595 593 592 589 587 584 581 578 575 573 570 568 565 562 559 555 553 550 548 546 543 541 539 537 535 533 531
710 708 707 705 704 703 701 699 698 696 695 693 691 689 688 686 684 683 681 679 677 675 673 672 670 668 665 662 659 657 654 652 649 648 647 646 645 643 642 640 638 636 634 632 629 627 625 622 618 615 612 610 608 606 605 603 601 598 595 594 592 590 588 585 583 581 578 575 572 569 566 564 561 558 554 551 548 545 543 541 539 537 534 532 530 528
709 707 706 704 703 701 699 698 697 695 693 691 690 688 686 685 683 681 680 678 677 674 672 670 669 667 664 662 659 657 654 651 648 646 645 643 642 641 639 638 636 634 632 630 627 625 623 620 617 615 613 610 607 604 603 602 600 598 596 593 591 589 586 584 582 580 578 575 572 569 565 563 559 556 553 549 546 543 540 538 536 534 532 529 527 525
708 706 705 703 702 700 698 697 695 693 692 690 688 687 685 683 682 680 678 677 675 673 671 669 667 665 663 661 659 657 655 652 649 646 644 642 640 638 637 635 633 631 629 628 625 623 620 618 616 613 612 609 607 604 602 600 599 598 596 593 591 588 586 583 581 579 577 574 572 569 566 563 559 556 552 548 544 541 538 536 534 532 529 527 525 523
707 705 704 702 701 699 697 695 694 692 691 689 687 685 683 682 681 679 678 676 674 672 670 668 666 664 662 660 658 656 654 652 649 647 644 642 640 638 635 633 631 629 627 625 623 620 618 616 614 612 610 608 606 604 601 599 598 597 595 593 591 588 585 583 580 578 576 573 570 568 565 563 560 556 552 548 543 540 537 534 531 529 527 525 523 521
706 704 703 701 699 698 696 694 693 691 689 688 686 684 682 681 679 678 677 675 673 671 669 668 666 663 661 659 657 654 653 650 648 646 644 642 640 638 635 633 630 628 625 622 620 618 615 613 611 609 609 608 606 604 602 599 597 595 593 592 590 588 585 582 579 577 575 573 569 567 564 562 558 555 552 548 543 539 535 532 530 527 525 523 521 519
704 703 702 700 698 697 695 693 692 690 688 687 685 683 681 679 678 677 675 674 672 670 668 667 665 663 661 658 656 654 652 650 648 645 643 641 639 638 635 633 631 628 625 622 619 616 614 611 608 606 605 606 605 604 602 599 597 594 592 590 588 587 585 582 579 577 574 572 569 566 563 561 558 555 552 548 543 539 535 531 528 526 523 521 519 516